Weather History for Slayton, MN

Change the Weather History Date:

Wednesday, November 21, 2012

  Actual Average (KOTG) Record (KOTG)
Temperature  
Mean Temperature 54 °F -  
Max Temperature 67 °F 36 °F 68 °F (2012)
Min Temperature 40 °F 22 °F -4 °F (1985)
Degree Days  
Heating Degree Days 12    
Growing Degree Days 4 (Base 50)    
Moisture  
Dew Point 35 °F    
Average Humidity 54    
Maximum Humidity 78    
Minimum Humidity 25    
Precipitation  
Precipitation 0.00 in - - ()
Sea Level Pressure  
Sea Level Pressure 29.86 in    
Wind  
Wind Speed 16 mph (SSW)    
Max Wind Speed 25 mph    
Max Gust Speed 32 mph    
Visibility 10 miles    
Events      
Averages and records for this station are not official NWS values.
T = Trace of Precipitation, MM = Missing Value Source: NWS Daily Summary

Daily Weather History Graph

Daily Weather History Graph

Search for Another Location

Airport:

Trip Planner

Search our weather history database for the weather conditions in past years. The results will help you decide how hot, cold, wet, or windy it might be!

Date:

Astronomy

Nov. 21, 2012 Rise Set
Actual Time 7:26 AM CST 4:51 PM CST
Civil Twilight 6:54 AM CST 5:23 PM CST
Nautical Twilight 6:19 AM CST 5:58 PM CST
Astronomical Twilight 5:45 AM CST 6:32 PM CST
Moon 1:20 PM CST (11/21) 12:33 AM CST (11/21)
Length of Visible Light 10h 28m
Length of Day
9h 24m
First Quarter, 62% of the Moon is Illuminated
Nov 21
First Quarter
Nov 28
Full
Dec 6
Last Quarter
Dec 13
New
Dec 19
First Quarter

Hourly Weather History & Observations

Time (CST) Temp. Windchill Dew Point Humidity Pressure Visibility Wind Dir Wind Speed Gust Speed Precip Events Conditions
12:15 AM 45.9 °F 39.4 °F 32.0 °F 58% 29.99 in 10.0 mi South 15.0 mph 19.6 mph N/A   Clear
12:35 AM 45.9 °F 38.8 °F 32.0 °F 58% 29.99 in 10.0 mi South 17.3 mph - N/A   Clear
12:55 AM 46.0 °F 38.0 °F 32.0 °F 58% 29.98 in 10.0 mi SSW 21.9 mph - N/A   Clear
1:15 AM 46.4 °F 38.5 °F 32.0 °F 57% 29.98 in 10.0 mi SSW 21.9 mph - N/A   Clear
1:35 AM 45.7 °F 37.8 °F 32.2 °F 59% 29.98 in 10.0 mi SSW 20.7 mph - N/A   Clear
1:55 AM 45.0 °F 36.9 °F 32.4 °F 61% 29.97 in 10.0 mi SSW 20.7 mph - N/A   Clear
2:15 AM 44.6 °F 36.9 °F 32.4 °F 62% 29.97 in 10.0 mi SSW 18.4 mph - N/A   Clear
2:35 AM 44.4 °F 36.9 °F 32.7 °F 64% 29.97 in 10.0 mi SSW 17.3 mph - N/A   Clear
2:55 AM 44.4 °F 36.9 °F 32.9 °F 64% 29.97 in 10.0 mi SSW 17.3 mph - N/A   Clear
3:15 AM 44.1 °F 37.4 °F 32.9 °F 65% 29.98 in 10.0 mi South 13.8 mph - N/A   Clear
3:35 AM 42.6 °F 35.6 °F 32.9 °F 68% 29.97 in 10.0 mi South 13.8 mph - N/A   Clear
3:55 AM 42.8 °F 36.6 °F 33.1 °F 69% 29.97 in 10.0 mi South 11.5 mph - N/A   Clear
4:15 AM 43.0 °F 37.2 °F 33.3 °F 69% 29.96 in 10.0 mi South 10.4 mph - N/A   Clear
4:34 AM 43.2 °F 37.4 °F 33.3 °F 68% 29.96 in 10.0 mi SSW 10.4 mph - N/A   Clear
4:55 AM 43.0 °F 36.0 °F 33.4 °F 69% 29.95 in 10.0 mi SSW 13.8 mph - N/A   Clear
5:15 AM 42.4 °F 35.7 °F 33.4 °F 70% 29.95 in 10.0 mi SSW 12.7 mph - N/A   Clear
5:35 AM 41.7 °F 34.8 °F 33.8 °F 73% 29.95 in 10.0 mi SSW 12.7 mph - N/A   Clear
5:55 AM 41.4 °F 33.6 °F 34.0 °F 75% 29.95 in 10.0 mi SSW 15.0 mph - N/A   Clear
6:15 AM 41.5 °F 35.0 °F 33.8 °F 74% 29.95 in 10.0 mi SW 11.5 mph - N/A   Clear
6:35 AM 41.2 °F 34.1 °F 34.0 °F 76% 29.95 in 10.0 mi SSW 12.7 mph - N/A   Clear
6:55 AM 40.8 °F 34.5 °F 34.2 °F 77% 29.95 in 10.0 mi SSW 10.4 mph - N/A   Clear
7:15 AM 41.0 °F 34.3 °F 34.2 °F 77% 29.95 in 10.0 mi SSW 11.5 mph - N/A   Clear
7:35 AM 41.0 °F 33.1 °F 34.3 °F 77% 29.95 in 10.0 mi SSW 15.0 mph - N/A   Clear
7:55 AM 40.5 °F 33.2 °F 34.2 °F 78% 29.95 in 10.0 mi SSW 12.7 mph - N/A   Clear
8:15 AM 41.0 °F 33.9 °F 34.3 °F 77% 29.95 in 10.0 mi SSW 12.7 mph - N/A   Clear
8:35 AM 41.9 °F 35.0 °F 34.7 °F 76% 29.95 in 10.0 mi SSW 12.7 mph - N/A   Clear
8:55 AM 43.7 °F 36.6 °F 34.7 °F 71% 29.95 in 10.0 mi SSW 15.0 mph - N/A   Clear
9:15 AM 45.5 °F 38.9 °F 35.1 °F 67% 29.94 in 10.0 mi SSW 15.0 mph - N/A   Clear
9:35 AM 48.0 °F - 35.1 °F 61% 29.94 in 10.0 mi SSW 11.5 mph - N/A   Clear
9:54 AM 50.0 °F - 35.1 °F 57% 29.94 in 10.0 mi SSW 12.7 mph - N/A   Clear
10:15 AM 51.4 °F - 34.3 °F 52% 29.94 in 10.0 mi SSW 17.3 mph - N/A   Clear
10:35 AM 53.8 °F - 33.6 °F 46% 29.92 in 10.0 mi SSW 18.4 mph 21.9 mph N/A   Clear
10:55 AM 54.5 °F - 32.9 °F 44% 29.91 in 10.0 mi South 11.5 mph - N/A   Clear
11:15 AM 55.9 °F - 32.5 °F 41% 29.91 in 10.0 mi SSW 12.7 mph - N/A   Clear
11:35 AM 56.5 °F - 33.6 °F 42% 29.91 in 10.0 mi SSW 10.4 mph - N/A   Clear
11:55 AM 57.0 °F - 32.5 °F 40% 29.89 in 10.0 mi SSW 13.8 mph - N/A   Clear
12:15 PM 58.3 °F - 33.6 °F 39% 29.88 in 10.0 mi South 15.0 mph - N/A   Clear
12:35 PM 59.9 °F - 33.8 °F 38% 29.87 in 10.0 mi SSW 16.1 mph - N/A   Clear
12:55 PM 62.4 °F - 33.1 °F 33% 29.86 in 10.0 mi South 16.1 mph 20.7 mph N/A   Clear
1:15 PM 63.9 °F - 32.0 °F 30% 29.85 in 10.0 mi SSW 20.7 mph 25.3 mph N/A   Clear
1:35 PM 65.1 °F - 31.3 °F 28% 29.84 in 10.0 mi SSW 23.0 mph 27.6 mph N/A   Clear
1:55 PM 65.1 °F - 31.6 °F 29% 29.83 in 10.0 mi South 16.1 mph - N/A   Clear
2:20 PM 66.2 °F - 32.7 °F 29% 29.81 in 10.0 mi South 18.4 mph 25.3 mph N/A   Clear
2:35 PM 66.9 °F - 31.6 °F 27% 29.81 in 10.0 mi SSW 21.9 mph 26.5 mph N/A   Clear
2:55 PM 67.8 °F - 30.7 °F 25% 29.79 in 10.0 mi South 20.7 mph 31.1 mph N/A   Clear
3:15 PM 67.6 °F - 30.6 °F 25% 29.79 in 10.0 mi SSW 25.3 mph 32.2 mph N/A   Clear
3:35 PM 65.8 °F - 33.4 °F 30% 29.79 in 10.0 mi South 19.6 mph 29.9 mph N/A   Clear
4:00 PM 64.4 °F - 34.7 °F 33% 29.78 in 10.0 mi South 18.4 mph 26.5 mph N/A   Clear
4:15 PM 63.7 °F - 35.6 °F 35% 29.78 in 10.0 mi South 15.0 mph 21.9 mph N/A   Clear
4:35 PM 61.9 °F - 36.7 °F 39% 29.78 in 10.0 mi South 12.7 mph - N/A   Clear
4:55 PM 60.6 °F - 36.5 °F 41% 29.77 in 10.0 mi South 10.4 mph - N/A   Clear
5:15 PM 60.3 °F - 36.9 °F 42% 29.76 in 10.0 mi South 12.7 mph - N/A   Clear
5:35 PM 59.4 °F - 37.0 °F 43% 29.76 in 10.0 mi South 13.8 mph 19.6 mph N/A   Clear
5:55 PM 59.2 °F - 37.4 °F 44% 29.76 in 10.0 mi South 16.1 mph 20.7 mph N/A   Clear
6:15 PM 58.6 °F - 37.2 °F 45% 29.76 in 10.0 mi South 13.8 mph 19.6 mph N/A   Clear
6:35 PM 57.9 °F - 37.9 °F 47% 29.75 in 10.0 mi South 15.0 mph 20.7 mph N/A   Clear
6:55 PM 57.6 °F - 39.6 °F 51% 29.75 in 10.0 mi South 17.3 mph 21.9 mph N/A   Clear
7:15 PM 58.3 °F - 40.1 °F 51% 29.74 in 10.0 mi South 17.3 mph 25.3 mph N/A   Clear
7:35 PM 56.7 °F - 40.5 °F 55% 29.74 in 10.0 mi South 15.0 mph - N/A   Clear
7:55 PM 57.4 °F - 40.3 °F 53% 29.73 in 10.0 mi South 19.6 mph 26.5 mph N/A   Clear
8:15 PM 57.2 °F - 40.1 °F 53% 29.72 in 10.0 mi South 17.3 mph 25.3 mph N/A   Clear
8:35 PM 57.2 °F - 39.7 °F 52% 29.72 in 10.0 mi South 19.6 mph 27.6 mph N/A   Clear
8:55 PM 56.7 °F - 39.6 °F 53% 29.71 in 10.0 mi South 20.7 mph 26.5 mph N/A   Clear
9:15 PM 56.3 °F - 39.4 °F 53% 29.71 in 10.0 mi SSW 19.6 mph 25.3 mph N/A   Clear
9:35 PM 55.4 °F - 39.2 °F 54% 29.71 in 10.0 mi South 19.6 mph - N/A   Clear
10:15 PM 55.4 °F - 38.8 °F 54% 29.69 in 10.0 mi SSW 24.2 mph 29.9 mph N/A   Clear
10:35 PM 54.5 °F - 38.8 °F 56% 29.69 in 10.0 mi SSW 23.0 mph 29.9 mph N/A   Clear
10:55 PM 54.1 °F - 38.5 °F 55% 29.69 in 10.0 mi SSW 23.0 mph 27.6 mph N/A   Clear
11:15 PM 54.0 °F - 38.5 °F 56% 29.68 in 10.0 mi SSW 21.9 mph 31.1 mph N/A   Clear
11:35 PM 53.4 °F - 38.5 °F 57% 29.68 in 10.0 mi SSW 23.0 mph 27.6 mph N/A   Clear
11:55 PM 52.9 °F - 38.7 °F 58% 29.67 in 10.0 mi SSW 25.3 mph - N/A   Clear